Weather History for Charlottetown, PE

Change the Weather History Date:

Sunday, November 27, 2011

  Actual Average Record
Temperature  
Mean Temperature 34 °F -  
Max Temperature 37 °F 32 °F 59 °F (1999)
Min Temperature 31 °F 18 °F 14 °F (2012)
Degree Days  
Heating Degree Days 31    
Moisture  
Dew Point 27 °F    
Average Humidity 75    
Maximum Humidity 81    
Minimum Humidity 58    
Precipitation  
Precipitation 0.00 in 0.17 in - ()
Sea Level Pressure  
Sea Level Pressure 30.40 in    
Wind  
Wind Speed 5 mph ()    
Max Wind Speed 10 mph    
Max Gust Speed -    
Visibility 15.0 miles    
Events      
Averages and records for this station are not official NWS values.
T = Trace of Precipitation, MM = Missing Value Source: Averaged Metar Reports

Daily Weather History Graph

Daily Weather History Graph

Search for Another Location

Airport:

Trip Planner

Search our weather history database for the weather conditions in past years. The results will help you decide how hot, cold, wet, or windy it might be!

Date:

Astronomy

Nov. 27, 2011 Rise Set
Actual Time 7:29 AM AST 4:30 PM AST
Civil Twilight 6:55 AM AST 5:03 PM AST
Nautical Twilight 6:18 AM AST 5:41 PM AST
Astronomical Twilight 5:42 AM AST 6:17 PM AST
Moon 9:52 AM AST (11/27) 7:02 PM AST (11/27)
Length of Visible Light 10h 07m
Length of Day
9h 00m
Waxing Crescent, 8% of the Moon is Illuminated
Nov 27
Waxing Crescent
Dec 2
First Quarter
Dec 10
Full
Dec 17
Last Quarter
Dec 24
New

Hourly Weather History & Observations

Time (AST) Temp. Windchill Dew Point Humidity Pressure Visibility Wind Dir Wind Speed Gust Speed Precip Events Conditions
12:00 AM 33.8 °F 29.6 °F 26.6 °F 75% 30.30 in 15.0 mi North 4.6 mph - N/A   Partly Cloudy
1:00 AM 32.0 °F 28.7 °F 26.6 °F 80% 30.29 in 15.0 mi NNE 3.5 mph - N/A   Partly Cloudy
2:00 AM 32 °F - 27 °F 75% 30.31 in 15 mi NNW 3.5 mph - -   Scattered Clouds
2:00 AM 32.0 °F 28.7 °F 26.6 °F 80% 30.31 in 15.0 mi NNW 3.5 mph - N/A   Mostly Cloudy
4:00 AM 33.8 °F 30.8 °F 28.4 °F 81% 30.33 in 15.0 mi North 3.5 mph - N/A   Overcast
5:00 AM 33.8 °F 30.8 °F 28.4 °F 81% 30.35 in 15.0 mi North 3.5 mph - N/A   Overcast
6:00 AM 33.8 °F 30.8 °F 26.6 °F 75% 30.36 in 15.0 mi North 3.5 mph - N/A   Overcast
7:00 AM 33.8 °F 30.8 °F 26.6 °F 75% 30.41 in 15.0 mi North 3.5 mph - N/A   Mostly Cloudy
8:00 AM 33 °F - 27 °F 69% 30.42 in 15 mi North 3.5 mph - -   Mostly Cloudy
8:00 AM 33.8 °F 30.8 °F 26.6 °F 75% 30.42 in 15.0 mi North 3.5 mph - N/A   Mostly Cloudy
10:00 AM 35.6 °F 32.8 °F 28.4 °F 75% 30.45 in 15.0 mi NNE 3.5 mph - N/A   Mostly Cloudy
11:00 AM 35.6 °F 30.7 °F 26.6 °F 70% 30.46 in 15.0 mi NE 5.8 mph - N/A   Mostly Cloudy
12:00 PM 37.4 °F 30.3 °F 28.4 °F 70% 30.44 in 15.0 mi NE 10.4 mph - N/A   Mostly Cloudy
1:00 PM 35.6 °F 28.6 °F 26.6 °F 70% 30.41 in 15.0 mi ENE 9.2 mph - N/A   Mostly Cloudy
2:00 PM 36 °F - 27 °F 58% 30.45 in 15 mi NE 9.2 mph - -   Mostly Cloudy
2:00 PM 35.6 °F 28.6 °F 26.6 °F 70% 30.45 in 15.0 mi ENE 9.2 mph - N/A   Mostly Cloudy
3:00 PM 35.6 °F 29.9 °F 26.6 °F 70% 30.45 in 15.0 mi ENE 6.9 mph - N/A   Mostly Cloudy
4:00 PM 33.8 °F 28.6 °F 26.6 °F 75% 30.46 in 15.0 mi East 5.8 mph - N/A   Overcast
5:00 PM 32.0 °F 26.4 °F 24.8 °F 75% 30.45 in 15.0 mi East 5.8 mph - N/A   Mostly Cloudy
6:00 PM 32.0 °F 25.6 °F 26.6 °F 80% 30.46 in 15.0 mi East 6.9 mph - N/A   Mostly Cloudy
7:00 PM 32.0 °F 25.6 °F 24.8 °F 75% 30.44 in 15.0 mi East 6.9 mph - N/A   Overcast
8:00 PM 32 °F - 26 °F 70% 30.41 in 15 mi ESE 6.9 mph - -   Overcast
8:00 PM 32.0 °F 25.6 °F 26.6 °F 80% 30.41 in 15.0 mi ESE 6.9 mph - N/A   Overcast
9:00 PM 32.0 °F 25.6 °F 26.6 °F 80% 30.39 in 15.0 mi SE 6.9 mph - N/A   Overcast
10:00 PM 33.8 °F 26.4 °F 28.4 °F 81% 30.36 in 15.0 mi SE 9.2 mph - N/A   Overcast
11:00 PM 33.8 °F 26.4 °F 28.4 °F 81% 30.35 in 15.0 mi SSE 9.2 mph - N/A   Overcast